Tracking 31013 objects as of 11-Jul-2025
HD Live streaming from Space Station
objects crossing your sky now

EOS-8

Track EOS-8 now!
10-day predictions


NORAD ID: 60454
Int'l Code: 2024-147A
Perigee: 445.4 km
Apogee: 451.0 km
Inclination: 37.4 °
Period: 93.4 minutes
Semi major axis: 6819 km
RCS: Unknown
Launch date: August 16, 2024
Source: India (IND)
Launch site: SRIHARIKOTA (SRI)
Your satellite tracking list
Your tracking list is empty




NASA's NSSDC Master Catalog

Two Line Element Set (TLE):
1 60454U 24147A   25191.03384655  .00019084  00000-0  44205-3 0  9999
2 60454  37.3811  51.3740 0004107 290.0163  70.0158 15.41706115 50172
Source of the keplerian elements: AFSPC